Flag for U.S.A. Weather past 2 weeks in Winamac, Indiana, U.S.A.

Now
81 °F

Passing clouds.


Feels Like: 85 °F
Forecast: 66 / 86 °F
Wind: 13 mph from West

Location: Porter County Municipal Airport

Current Time: Sep 1, 2015 at 2:57:48 PM

Latest Report: Sep 1, 2015 at 1:56 PM


Visibility: 10 mi

Pressure: 30.07 "Hg

Humidity: 72%

Dew point: 71 °F

Location of WinamacLocation

Historic Weather in Winamac — Graph

°F

Winamac temperature yesterday

Maximum temperature yesterday: 85 °F (at 3:56 PM)
Minimum temperature yesterday: 62 °F (at 3:56 AM)
Average temperature yesterday: 72 °F

Past Weeks' High & Low Weather Summary

 TemperatureHumidityPressure
High85 °F (Aug 17, 1:56 PM)100% (Aug 31, 4:56 AM)30.23 "Hg (Aug 31, 4:56 AM)
Low53 °F (Aug 28, 5:56 AM)42% (Aug 22, 1:56 PM)29.69 "Hg (Aug 19, 5:56 AM)
Average68 °F76%30.01 "Hg
* Reported Aug 17 1:56 PM — Sep 1 1:56 PM, Winamac, Weather by CustomWeather, © 2015

Note: Actual official high and low records may vary slightly from our data, if they occured in-between our weather recording intervals... More about our weather records

Advertising

Winamac weather history for previous 24 hours

 ConditionsComfort  
Time TempWeatherWind HumidityBarometerVisibility
1:56 PM
Tue, Sep 1
81 °FPassing clouds.13 mph72%30.07 "Hg10 mi
12:56 PM81 °FOvercast.15 mph72%30.09 "Hg10 mi
11:56 AM81 °FPartly sunny.N/A74%30.09 "Hg10 mi
10:56 AM79 °FSunny.6 mph77%30.07 "Hg10 mi
9:56 AM75 °FSunny.6 mph85%30.08 "Hg8 mi
8:56 AM71 °FFog.7 mph90%30.08 "Hg5 mi
7:56 AM69 °FFog.No wind93%30.07 "Hg3 mi
6:56 AM69 °FFog.No wind90%30.06 "Hg4 mi
5:56 AM68 °FFog.No wind93%30.06 "Hg4 mi
4:56 AM69 °FFog.No wind93%30.06 "Hg6 mi
3:56 AM69 °FFog.No wind93%30.05 "Hg6 mi
2:56 AM71 °FClear.5 mph90%30.06 "Hg7 mi
1:56 AM70 °FFog.3 mph93%30.06 "Hg6 mi
12:58 AM70 °FFog.No wind93%30.07 "Hg0 mi
10:56 PM
Mon, Aug 31
72 °FFog.3 mph91%30.06 "Hg5 mi
9:56 PM73 °FPassing clouds.No wind90%30.04 "Hg7 mi
8:56 PM75 °FPassing clouds.No wind85%30.03 "Hg10 mi
7:56 PM81 °FSunny.No wind72%30.02 "Hg10 mi
6:56 PM84 °FSunny.No wind61%30.02 "Hg10 mi
4:56 PM85 °FSunny.5 mph61%30.02 "Hg10 mi
3:56 PM85 °FSunny.7 mph61%30.04 "Hg10 mi
2:56 PM83 °FSunny.N/A63%30.06 "Hg10 mi
Weather by CustomWeather, © 2015

See weather overviewHow to use our weather pages